Regional Weather Roundup
Issued by NWS Grand Forks, ND

Home | Current Version | Previous Version | Graphics & Text | Print | Product List | Glossary On
Versions: 1 2 3 4 5 6 7 8 9 10 11 12 13 14 15 16 17 18 19 20 21 22 23 24 25 26 27 28 29 30 31 32 33 34 35 36 37 38 39 40 41 42 43 44 45 46 47 48 49 50
000
ASUS43 KFGF 030210
RWRFGF
PRAIRIE TO PINES  WEATHER ROUNDUP
NATIONAL WEATHER SERVICE EASTERN NORTH DAKOTA/GRAND FORKS ND
900 PM CDT MON MAY 02 2016

 **SATELLITE DATA USED TO AUGMENT SKY COVER AT AUTOMATED STATIONS**
 *****  WEATHER ACROSS EASTERN NORTH DAKOTA  *****

CITY           SKY/WX    TMP DP  RH WIND       PRES   REMARKS
GRAND FORKS    PTCLDY    57  35  43 SW8       29.94S
GRAND FRKS AFB NOT AVBL
DEVILS LAKE    CLEAR     58  36  43 SW8       29.99S
FARGO          CLEAR     62  35  36 W13       29.96S
WAHPETON ARPT  CLEAR     55  28  35 NW8       29.97S
$$

 ***** WEATHER ACROSS CENTRAL AND WESTERN NORTH DAKOTA  *****

CITY           SKY/WX    TMP DP  RH WIND       PRES   REMARKS
BISMARCK       CLEAR     56  42  59 E6        29.99R
MINOT          CLEAR     63  35  35 SE6       29.98R
JAMESTOWN      CLEAR     52  37  56 CALM      30.00S
MINOT AFB      CLEAR     61  37  41 E3        29.97
GARRISON         N/A     60  36  40 CALM      29.99R
WILLISTON      CLEAR     57  36  45 N3        29.98F
DICKINSON      CLEAR     55  33  43 NE6       30.00R
HETTINGER      CLEAR     54  33  45 NE9       30.02R
$$

 *****  OTHER AIRPORT OBSERVATIONS IN OUR AREA  *****

CITY           SKY/WX    TMP DP  RH WIND       PRES   REMARKS
WALHALLA       FAIR      63  34  34 W3        29.93F
GRAFTON AIRPOR FAIR      63  32  31 SW5       29.95S
VALLEY CITY AR FAIR      50  36  57 W7        30.02S
CANDO          FAIR      57  32  38 SW7       30.00S
CAVALIER APRT  FAIR      63  43  48 SW3       29.93F
GWINNER        FAIR      57  37  47 W8        30.00S
SHEYENNE NWR     N/A     59  35  41 NW5       29.95S
ROLLA          FAIR      55  36  47 SW8       29.98S
 ***** THE ABOVE OBSERVATIONS ARE NON NWS ARE NOT QUALITY
       CONTROLLED AND MAY MIS-REPORT RAIN FOR SNOW...
$$

  *****  WEATHER ACROSS NORTHERN MINNESOTA  *****

CITY           SKY/WX    TMP DP  RH WIND       PRES   REMARKS
FLAG ISLAND    PTCLDY    54  41  62 S5        29.91S
WARROAD        PTCLDY    59  36  41 SW6       29.93S
ROSEAU         CLOUDY    63  32  31 CALM      29.93S
HALLOCK        CLOUDY    64  25  22 CALM      29.93S
THF RVR FALLS  CLEAR     59  23  25 CALM      29.95F
BAUDETTE       PTCLDY    55  34  45 CALM      29.93F
WASKISH        CLEAR     57  34  41 S3        29.94S
CROOKSTON      CLEAR     61  28  29 NW3       29.95S
STEPHEN NDAWN    N/A     61  27  27 NW3         N/A
GREENBUSH NDAW   N/A     61  32  33 W3          N/A
$$
  *****  WEATHER ACROSS CENTRAL AND WEST MINNESOTA  *****

CITY           SKY/WX    TMP DP  RH WIND       PRES   REMARKS
FOSSTON        CLEAR     57  28  33 CALM      29.96S
BEMIDJI        PTCLDY    56  28  33 CALM      29.95S
PARK RAPIDS    CLEAR     55  31  39 SW6       29.96S
ELBOW LAKE     FAIR      57  32  38 S5        29.99S
WADENA         CLEAR     55  30  38 CALM      29.97S
DETROIT LAKES  CLEAR     61  28  29 SW3       29.99R
MOORHEAD       CLEAR     63  34  34 W8        29.97S
FERGUS FALLS   CLEAR     61  34  36 S3        29.95S
MORRIS MN      CLOUDY    63  28  27 S3        29.98S
STAPLES        CLEAR     55  28  35 CALM      29.98S
$$
  *****  WEATHER ELSEWHERE ACROSS MINNESOTA  *****

CITY           SKY/WX    TMP DP  RH WIND       PRES   REMARKS
DULUTH         PTCLDY    56  30  37 S3        29.97S
INTRNTL FALLS  CLEAR     52  33  48 CALM      29.93S
ELY            PTCLDY    54  28  37 CALM      29.94F
CLOQUET        CLEAR     54  30  40 CALM      29.98R
WHEATON        CLEAR     59  34  38 SE5       30.00S
BRAINERD       CLEAR     54  34  46 SE5       29.98S
HIBBING        PTCLDY    51  30  44 SW5       29.95S
ALEXANDRIA     CLEAR     57  29  34 S6        30.00S
SAINT CLOUD    CLEAR     56  35  45 CALM      29.99S
MINNEAPOLIS    PTCLDY    61  28  28 CALM      30.00S
$$

  *****  WEATHER ACROSS SOUTH DAKOTA  *****

CITY           SKY/WX    TMP DP  RH WIND       PRES   REMARKS
SIOUX FALLS    PTCLDY    56  38  50 SW3       30.01S
BROOKINGS      CLEAR     56  35  45 S6        30.00R
WATERTOWN      CLEAR     56  36  47 W6        29.99R
HURON          MOCLDY    52  45  77 NW3       30.00S
SISSETON         N/A     57  36  45 NW6       29.98R
ABERDEEN       CLEAR     52  39  61 SE5       30.00S
MITCHELL       MOCLDY    53  47  79 SW5       30.01S
PIERRE         MOCLDY    49  43  80 CALM      30.00R
MOBRIDGE       CLEAR     57  45  64 E12       29.97R
RAPID CITY     MOCLDY    55  40  56 N12       29.99R
$$

  *****  SOME WEATHER IN NEARBY STATES *****

CITY           SKY/WX    TMP DP  RH WIND       PRES   REMARKS
GLASGOW MT     CLEAR     67  41  38 N7        30.01R
GREAT FALLS MT CLEAR     64  35  34 SE6       30.09S
CHEYENNE WY    CLEAR     49  25  39 NW9       30.12R
SCOTTSBLUFF NE MOCLDY    57  31  37 NW17      30.02R
OMAHA NE       PTCLDY    55  42  61 CALM      30.04S
DES MOINES IA  PTCLDY    55  42  61 SE5       30.05S
DAVENPORT IA   CLOUDY    54  45  71 W3        30.03F
CHICAGO IL     PTCLDY    50  33  52 N6        30.01S
EAU CLAIRE WI  MOCLDY    57  35  43 SW3       30.00S
LA CROSSE WI   CLOUDY    57  39  51 S3        30.01S
$$

  *****  SOME NATIONAL WEATHER *****

CITY           SKY/WX    TMP DP  RH WIND       PRES   REMARKS
LA GUARDIA NY  MOCLDY    58  50  75 W3        29.93R
RALEIGH NC     MOCLDY    68  62  81 S12       29.93R
ATLANTA GA     CLOUDY    74  64  71 SW10      29.94S
NEW ORLEANS LA PTCLDY    74  70  87 CALM      29.95R
OKLAHOMA CITY  PTCLDY    57  42  57 N5        30.11R
ALBUQUERQUE NM MOCLDY    60  29  30 S7        30.14R
SALT LAKE CITY PTCLDY    64  31  28 N9        30.14F
LOS ANGELES CA FAIR      61  54  77 W15       29.95S
BOISE ID       CLEAR     73  24  16 SE7       30.06F
SEATTLE WA     MOSUNNY   82  44  26 SW12G21   29.89S
$$

*** WEATHER ACROSS MANITOBA...SASKATCHEWAN AND ONTARIO ***
                ***ONTARIO***

CITY           SKY/WX    TMP DP  RH WIND       PRES   REMARKS
GERALDTON      CLOUDY    54  30  40 SW5       29.87F
THUNDER BAY    PTCLDY    54  30  40 SW5       29.94S
SIOUX LOOKOUT  NOT AVBL
TORONTO        PTCLDY    46  37  71 VRB2      29.99S
BIG TROUT LK   MOCLDY    46  36  66 S5        29.64F
PICKLE LAKE    CLOUDY    57  30  35 SW13      29.76F
DRYDEN         PTCLDY    57  28  33 W8        29.88F
KENORA         CLOUDY    57  25  28 SW7       29.90F
$$
                *** MANITOBA***

CITY           SKY/WX    TMP DP  RH WIND       PRES   REMARKS
BRANDON        MOCLDY    57  39  51 W6        29.94S
DAUPHIN        CLEAR     59  41  51 SE5       29.91S
ISLAND LAKE    PTCLDY    54  37  54 NW7       29.73R
PILOT MOUND      N/A     55  28  35 SW6         N/A
THE PAS        MOCLDY    59  30  33 N9        29.91R
THOMPSON       NOT AVBL
WINNIPEG       PTCLDY    61  37  41 NW3       29.91F
LYNN LAKE      CLEAR     52  28  40 N13G21    29.96R
CHURCHILL      CLOUDY    34  32  93 NW21G30   29.79R WCI  22
GILLAM         PTCLDY    46  32  57 N16G23    29.76R
$$
                ***SASKATCHEWAN***

CITY           SKY/WX    TMP DP  RH WIND       PRES   REMARKS
ESTEVAN        MOCLDY    63  34  34 N6        29.97S
KINDERSLEY     PTCLDY    75  37  25 N3        30.00S
LLOYDMINSTER     N/A     75  36  23 VRB2      29.99S
PRINCE ALBERT  MOCLDY    72  36  26 N7        29.94S
REGINA         MOCLDY    66  30  26 NE6       29.99S
YORKTON        CLEAR     64  34  32 SW3       29.94F
N. BATTLEFORD  CLEAR     75  37  25 N2        29.99S
LA RONGE       NOT AVBL
SASKATOON      MOCLDY    75  36  23 CALM      29.98S
SWIFT CURRENT  CLEAR     70  36  28 E5        30.02S
$$
NOTE: THESE ARE AUTOMATED STATIONS WITH LIMITED QUALITY CONTROL
      "FAIR" INDICATES FEW OR NO CLOUDS BELOW 12,000 FEET WITH NO
      SIGNIFICANT WEATHER AND/OR OBSTRUCTIONS TO VISIBILITY.
      SKY/WX - SKY CONDITION AND SIGNIFICANT WEATHER.
      TMP - AIR TEMPERATURE.    DP   - DEWPOINT TEMPERATURE.
      RH  - RELATIVE HUMIDITY.  PRES - PRESSURE.
      HX  - HEAT INDEX.         WCI  - WIND CHILL INDEX.
$




USA.gov is the U.S. government's official web portal to all federal, state and local government web resources and services.